This is the latest recevied weather packets stored in our database for station/object AE5EW. If no packets are shown the sender has not sent any weather packets the latest 10 day(s).
| Time | Temp. | Humidity | Pressure | Rain* | Wind** | Luminosity | Snow |
|---|---|---|---|---|---|---|---|
| 1787689447 | 33.89° C | 62% | 1015.8 hPa | 0 mm | - | - | - |
| 1787689146 | 32.78° C | 63% | 1015.8 hPa | 0 mm | - | - | - |
| 1787688843 | 33.33° C | 61% | 1015.9 hPa | 0 mm | - | - | - |
| 1787688538 | 33.33° C | 61% | 1016 hPa | 0 mm | - | - | - |
| 1787688238 | 33.33° C | 60% | 1016.1 hPa | 0 mm | - | - | - |
| 1787687933 | 33.89° C | 62% | 1016 hPa | 0 mm | - | - | - |
| 1787687628 | 33.89° C | 64% | 1016.1 hPa | 0 mm | - | - | - |
| 1787687324 | 33.33° C | 63% | 1016.1 hPa | 0 mm | - | - | - |
| 1787687020 | 33.33° C | 62% | 1016.1 hPa | 0 mm | - | - | - |
| 1787686716 | 33.33° C | 65% | 1016.2 hPa | 0 mm | - | - | - |
| 1787686410 | 32.78° C | 68% | 1016.4 hPa | 0 mm | - | - | - |
| 1787686106 | 32.22° C | 71% | 1016.5 hPa | 0 mm | - | - | - |
| 1787685802 | 32.22° C | 67% | 1016.5 hPa | 0 mm | - | - | - |
| 1787685496 | 32.22° C | 70% | 1016.9 hPa | 0 mm | - | - | - |
| 1787685196 | 32.78° C | 66% | 1016.9 hPa | 0 mm | - | - | - |
| 1787684892 | 32.78° C | 68% | 1016.9 hPa | 0 mm | - | - | - |
| 1787684587 | 33.89° C | 63% | 1016.8 hPa | 0 mm | - | - | - |
| 1787684281 | 33.89° C | 64% | 1016.9 hPa | 0 mm | - | - | - |
| 1787683977 | 33.89° C | 63% | 1017.1 hPa | 0 mm | - | - | - |
| 1787683675 | 33.33° C | 61% | 1017.1 hPa | 0 mm | - | - | - |
| 1787683371 | 33.89° C | 61% | 1017.1 hPa | 0 mm | - | - | - |
| 1787683067 | 33.89° C | 59% | 1016.8 hPa | 0 mm | - | - | - |
| 1787682764 | 33.33° C | 68% | 1016.9 hPa | 0 mm | - | - | - |
| 1787682459 | 33.33° C | 66% | 1017.2 hPa | 0 mm | - | - | - |
| 1787682155 | 31.67° C | 69% | 1017.2 hPa | 0 mm | - | - | - |
* Rain latest hour (hover to see other rain measurements)
** Current wind speed in m/s (hover to see current wind gust speed)